GW2652 Weather Reports


Display with metric or nautical units.
time (UTC)temp
F
wind
direction
speed
MPH
gust
MPH
rain 1hr
in
rain 24hr
in
rain mn
in
humidity
%
barometer
mb
20260508185849 49 286 5.0 6.0 0.00 0.11 0.11 70 1009.5
20260508185347 48 184 1.0 2.0 0.00 0.11 0.11 75 1009.7
20260508184844 47 237 2.0 3.0 0.00 0.11 0.11 73 1010.0
20260508184341 48 217 2.0 2.0 0.00 0.11 0.11 75 1009.6
20260508183838 48 259 4.0 4.0 0.00 0.11 0.11 76 1009.9
20260508183335 47 71 2.0 3.0 0.00 0.11 0.11 74 1009.9
20260508182830 47 271 4.0 4.0 0.00 0.11 0.11 75 1009.9
20260508182327 46 207 2.0 3.0 0.00 0.11 0.11 73 1010.0
20260508181823 47 183 1.0 1.0 0.00 0.11 0.11 79 1010.0
20260508181320 46 221 3.0 3.0 0.00 0.11 0.11 80 1010.1
20260508180817 47 263 3.0 3.0 0.00 0.11 0.11 81 1010.2
20260508180314 46 76 0.0 0.0 0.00 0.11 0.11 81 1009.9
20260508175810 46 146 0.0 1.0 0.00 0.11 0.11 79 1009.9
20260508175306 48 182 3.0 4.0 0.00 0.11 0.11 78 1010.1
20260508174804 48 286 7.0 11.0 0.00 0.11 0.11 80 1009.8
20260508174301 46 228 3.0 3.0 0.00 0.11 0.11 83 1009.6
20260508173758 46 88 0.0 0.0 0.00 0.11 0.11 80 1009.5
20260508173254 46 224 1.0 1.0 0.00 0.11 0.11 81 1009.5
20260508172745 47 216 1.0 1.0 0.00 0.11 0.11 83 1009.8
20260508172243 46 172 0.0 0.0 0.00 0.11 0.11 88 1010.0
20260508171739 46 304 4.0 6.0 0.00 0.11 0.11 87 1009.9
20260508171234 45 188 1.0 1.0 0.00 0.11 0.11 87 1010.0
20260508170732 45 149 0.0 0.0 0.00 0.11 0.11 86 1010.0
20260508170230 44 164 0.0 0.0 0.00 0.11 0.11 85 1009.9
20260508165727 45 191 0.0 0.0 0.00 0.11 0.11 88 1009.8
20260508165224 44 184 0.0 0.0 0.00 0.11 0.11 96 1009.9
20260508164720 42 304 0.0 1.0 0.00 0.11 0.11 91 1010.0
20260508164217 42 160 0.0 0.0 0.00 0.11 0.11 94 1010.4
20260508163715 41 225 2.0 2.0 0.00 0.11 0.11 94 1010.3
20260508163212 40 171 1.0 1.0 0.00 0.11 0.11 95 1010.6
20260508162707 39 298 2.0 4.0 0.00 0.11 0.11 95 1010.3
20260508162205 39 272 1.0 2.0 0.00 0.11 0.11 96 1010.4
20260508161702 39 139 1.0 1.0 0.00 0.11 0.11 97 1010.4
20260508161159 38 139 0.0 0.0 0.00 0.11 0.11 98 1010.4
20260508160657 38 210 1.0 1.0 0.00 0.11 0.11 98 1010.6
20260508160155 37 211 1.0 2.0 0.00 0.11 0.11 98 1010.4
20260508155651 38 189 1.0 1.0 0.07 0.11 0.11 98 1010.4
20260508155148 38 189 0.0 1.0 0.07 0.11 0.11 97 1010.3
20260508154646 37 187 0.0 0.0 0.00 0.10 0.10 98 1010.1
20260508154142 37 201 0.0 1.0 0.00 0.10 0.10 98 1010.3
20260508153639 37 197 0.0 0.0 0.05 0.10 0.10 98 1010.1
20260508153136 37 230 0.0 1.0 0.05 0.10 0.10 98 1010.3
20260508152632 37 235 1.0 1.0 0.00 0.09 0.09 98 1010.3
20260508152127 37 232 1.0 1.0 0.00 0.09 0.09 98 1010.2
20260508151625 37 231 0.0 0.0 0.00 0.09 0.09 98 1009.8
20260508151122 36 236 1.0 1.0 0.00 0.09 0.09 98 1009.9
20260508150618 37 235 0.0 0.0 0.00 0.09 0.09 98 1010.2
20260508150114 36 255 0.0 1.0 0.00 0.09 0.09 97 1010.0
20260508145605 37 116 0.0 0.0 0.00 0.09 0.09 97 1010.3
20260508145102 37 124 0.0 0.0 0.07 0.09 0.09 97 1010.3
20260508144600 37 123 0.0 0.0 0.12 0.09 0.09 96 1010.1
20260508144057 37 123 0.0 0.0 0.12 0.08 0.08 96 1010.3
20260508143554 37 123 0.0 0.0 0.12 0.07 0.07 96 1010.3
20260508143051 38 153 0.0 0.0 0.05 0.06 0.06 96 1010.5
20260508142548 38 156 0.0 1.0 0.00 0.05 0.05 96 1010.4
20260508142044 38 155 0.0 0.0 0.07 0.05 0.05 95 1010.3
20260508141541 39 176 0.0 0.0 0.07 0.05 0.05 95 1010.0
20260508141038 39 177 1.0 1.0 0.05 0.04 0.04 94 1010.0
20260508140536 39 174 0.0 0.0 0.05 0.04 0.04 93 1009.8
20260508140032 40 186 0.0 1.0 0.07 0.03 0.03 91 1009.7
20260508135527 40 190 0.0 1.0 0.07 0.03 0.03 88 1009.6
20260508135024 41 239 1.0 1.0 0.00 0.02 0.02 87 1009.4
20260508134521 42 153 1.0 1.0 0.07 0.02 0.02 86 1009.4
20260508134018 42 123 2.0 3.0 0.07 0.02 0.02 85 1009.3
20260508133515 42 128 1.0 1.0 0.00 0.01 0.01 78 1009.2
20260508133012 43 122 0.0 1.0 0.00 0.01 0.01 83 1009.2
20260508132510 43 121 0.0 1.0 0.00 0.01 0.01 83 1009.2
20260508132006 43 207 1.0 1.0 0.00 0.01 0.01 83 1009.3
20260508131501 43 194 1.0 1.0 0.00 0.01 0.01 82 1009.2
20260508130958 43 207 2.0 2.0 0.00 0.01 0.01 82 1009.0
20260508130456 44 286 2.0 2.0 0.00 0.01 0.01 81 1008.8
20260508125951 43 180 0.0 1.0 0.00 0.01 0.01 82 1009.0
20260508125447 43 286 2.0 3.0 0.00 0.01 0.01 83 1008.8
20260508124945 43 304 5.0 7.0 0.00 0.01 0.01 82 1009.0
20260508124443 43 234 2.0 2.0 0.00 0.01 0.01 82 1008.9
20260508123940 43 158 0.0 0.0 0.00 0.01 0.01 84 1008.9
20260508123439 43 154 2.0 2.0 0.00 0.01 0.01 87 1008.9
20260508122935 44 200 0.0 2.0 0.00 0.01 0.01 85 1008.9
20260508122432 44 109 0.0 0.0 0.00 0.01 0.01 85 1009.1
20260508121929 45 64 2.0 3.0 0.00 0.01 0.01 82 1009.2
20260508121427 44 149 1.0 1.0 0.00 0.01 0.01 84 1009.1
20260508120924 44 157 1.0 1.0 0.00 0.01 0.01 85 1009.0
20260508120422 42 180 0.0 0.0 0.00 0.01 0.01 88 1009.0
20260508115919 43 149 0.0 1.0 0.00 0.01 0.01 87 1009.2
20260508115418 42 159 0.0 0.0 0.00 0.01 0.01 87 1009.2
20260508114913 42 146 0.0 0.0 0.00 0.01 0.01 89 1009.3
20260508114410 40 149 0.0 0.0 0.00 0.01 0.01 94 1009.3
20260508113907 39 149 0.0 0.0 0.00 0.01 0.01 95 1009.2
20260508113405 38 150 0.0 0.0 0.00 0.01 0.01 96 1009.6
20260508112902 38 150 0.0 0.0 0.00 0.01 0.01 97 1009.3
20260508112359 37 149 0.0 0.0 0.00 0.01 0.01 98 1009.5
20260508111855 37 149 0.0 0.0 0.00 0.01 0.01 99 1009.3
20260508111352 37 149 0.0 0.0 0.00 0.01 0.01 99 1009.3
20260508110849 37 150 0.0 0.0 0.00 0.01 0.01 99 1009.4
20260508110347 36 149 0.0 0.0 0.00 0.01 0.01 99 1009.2
20260508105847 35 149 0.0 0.0 0.00 0.01 0.01 99 1009.5
20260508105343 35 149 0.0 0.0 0.00 0.01 0.01 99 1009.2
20260508104841 34 149 0.0 0.0 0.00 0.01 0.01 99 1009.4
20260508104337 34 149 0.0 0.0 0.00 0.01 0.01 99 1009.3
20260508103835 33 149 0.0 0.0 0.00 0.01 0.01 99 1009.1
20260508103331 34 146 0.0 0.0 0.00 0.01 0.01 99 1009.4
20260508102829 33 146 0.0 0.0 0.00 0.01 0.01 99 1009.3
20260508102327 33 147 0.0 0.0 0.00 0.01 0.01 99 1009.4
20260508101824 33 147 0.0 0.0 0.00 0.01 0.01 99 1009.5
20260508101321 33 147 0.0 0.0 0.00 0.01 0.01 99 1009.3
20260508100818 33 147 0.0 0.0 0.00 0.01 0.01 99 1009.2
20260508100312 33 147 0.0 0.0 0.00 0.01 0.01 99 1009.2
20260508095807 33 147 0.0 0.0 0.00 0.01 0.01 99 1009.2
20260508095306 33 147 0.0 0.0 0.00 0.01 0.01 99 1009.1
20260508094801 33 147 0.0 0.0 0.00 0.01 0.01 99 1009.0
20260508094258 33 147 0.0 0.0 0.00 0.01 0.01 99 1009.0
20260508093755 33 147 0.0 0.0 0.00 0.01 0.01 99 1008.8
20260508093253 33 147 0.0 0.0 0.00 0.01 0.01 99 1008.9
20260508092749 34 147 0.0 0.0 0.00 0.01 0.01 99 1008.9
20260508092248 34 149 0.0 0.0 0.00 0.01 0.01 99 1008.8
20260508091746 34 165 0.0 0.0 0.00 0.01 0.01 99 1008.8
20260508091242 34 165 0.0 0.0 0.00 0.01 0.01 99 1009.2
20260508090740 34 165 0.0 0.0 0.00 0.01 0.01 99 1008.7
20260508090238 35 165 0.0 0.0 0.00 0.01 0.01 99 1008.8
20260508085733 35 165 0.0 0.0 0.00 0.01 0.01 99 1008.5
20260508085231 35 165 0.0 0.0 0.00 0.01 0.01 99 1009.0
20260508084726 35 165 0.0 0.0 0.00 0.01 0.01 99 1008.8
20260508084224 36 165 0.0 0.0 0.00 0.01 0.01 99 1008.6
20260508083721 37 165 0.0 0.0 0.00 0.01 0.01 99 1008.5
20260508083219 37 165 0.0 0.0 0.00 0.01 0.01 99 1008.5
20260508082714 37 165 0.0 0.0 0.00 0.01 0.01 99 1008.8
20260508082212 38 165 0.0 0.0 0.00 0.01 0.01 99 1008.4
20260508081709 38 165 0.0 1.0 0.00 0.01 0.01 99 1008.4
20260508081205 38 165 1.0 1.0 0.00 0.01 0.01 98 1008.4
20260508080702 38 165 0.0 1.0 0.00 0.01 0.01 98 1008.4
20260508080201 38 158 0.0 0.0 0.00 0.01 0.01 98 1008.2
20260508075657 38 183 0.0 0.0 0.00 0.01 0.01 98 1008.4
20260508075154 38 183 0.0 0.0 0.00 0.01 0.01 97 1008.5
20260508074651 38 182 0.0 0.0 0.05 0.01 0.01 97 1008.4
20260508074148 38 142 0.0 0.0 0.05 0.01 0.01 97 1008.2
20260508073645 38 141 0.0 0.0 0.00 0.00 0.00 97 1008.4
20260508073143 38 171 0.0 0.0 0.00 0.00 0.00 97 1008.5
20260508072639 38 183 0.0 0.0 0.00 0.00 0.00 97 1008.3
20260508072136 38 183 0.0 1.0 0.00 0.00 0.00 97 1008.3
20260508071634 37 183 0.0 0.0 0.00 0.00 0.00 97 1008.0
20260508071132 37 182 0.0 0.0 0.00 0.00 0.00 96 1008.3
20260508070629 37 183 0.0 0.0 0.00 0.00 0.00 96 1007.9
20260508070128 37 183 0.0 0.0 0.00 0.00 0.00 96 1008.4
20260508065624 37 188 0.0 0.0 0.00 0.00 0.00 96 1008.2
20260508065122 38 188 0.0 0.0 0.00 0.00 0.00 95 1008.0
20260508064620 37 162 0.0 0.0 0.00 0.00 0.00 95 1007.8
20260508064118 37 161 0.0 0.0 0.00 0.00 0.00 94 1008.3
20260508063615 37 194 0.0 0.0 0.00 0.00 0.00 95 1008.2
20260508063113 38 136 0.0 0.0 0.00 0.00 0.00 93 1008.2
20260508062610 38 136 0.0 0.0 0.00 0.00 0.00 92 1008.3
20260508062106 38 156 0.0 0.0 0.00 0.00 0.00 91 1008.4
20260508061604 39 157 0.0 0.0 0.00 0.00 0.00 91 1007.9
20260508061101 38 157 0.0 0.0 0.00 0.00 0.00 89 1008.4
20260508060558 38 168 0.0 0.0 0.00 0.00 0.00 88 1008.3
20260508060055 38 180 0.0 1.0 0.00 0.00 0.00 88 1008.5
20260508055550 38 142 0.0 0.0 0.00 0.00 0.00 88 1008.3
20260508055047 39 150 0.0 0.0 0.00 0.00 0.00 88 1008.2
20260508054544 39 158 0.0 0.0 0.00 0.00 0.00 88 1008.2
20260508054041 39 182 0.0 0.0 0.00 0.00 0.00 86 1008.2
20260508053538 39 189 0.0 0.0 0.00 0.00 0.00 84 1008.2
20260508053036 39 201 0.0 0.0 0.00 0.00 0.00 86 1008.3
20260508052533 38 167 0.0 0.0 0.00 0.00 0.00 92 1007.9
20260508052030 38 147 0.0 0.0 0.00 0.00 0.00 93 1008.5
20260508051526 38 158 0.0 0.0 0.00 0.00 0.00 93 1008.3
20260508051021 37 143 0.0 0.0 0.00 0.00 0.00 93 1008.4
20260508050518 37 152 0.0 0.0 0.00 0.00 0.00 93 1008.5
20260508050016 37 181 0.0 0.0 0.00 0.00 0.00 94 1008.6
20260508045512 37 150 0.0 0.0 0.00 0.00 0.00 94 1008.3
20260508045009 37 150 0.0 0.0 0.00 0.00 0.00 94 1008.5
20260508044507 37 162 0.0 0.0 0.00 0.00 0.00 93 1008.2
20260508044002 36 166 0.0 0.0 0.00 0.00 0.00 94 1008.2
20260508043459 36 155 0.0 0.0 0.00 0.00 0.00 94 1008.4
20260508042955 36 150 0.0 0.0 0.00 0.00 0.00 94 1008.3
20260508042453 36 150 0.0 0.0 0.00 0.00 0.00 94 1008.5
20260508041950 36 149 0.0 0.0 0.00 0.00 0.00 94 1008.3
20260508041446 36 179 0.0 0.0 0.00 0.00 0.00 94 1008.0
20260508040943 36 186 0.0 1.0 0.00 0.00 0.00 94 1008.0
20260508040441 36 171 0.0 0.0 0.00 0.00 0.00 94 1008.2
20260508035938 36 170 0.0 0.0 0.00 0.01 0.01 94 1008.5
20260508035435 36 142 0.0 1.0 0.00 0.01 0.01 94 1008.4
20260508034932 36 158 0.0 1.0 0.00 0.01 0.01 94 1008.2
20260508034429 36 132 0.0 1.0 0.00 0.01 0.01 94 1008.3
20260508033925 35 165 0.0 0.0 0.00 0.01 0.01 95 1008.2
20260508033424 35 165 0.0 0.0 0.00 0.01 0.01 95 1008.0
20260508032921 35 149 0.0 0.0 0.00 0.01 0.01 95 1008.0
20260508032418 35 164 0.0 0.0 0.00 0.01 0.01 95 1007.9
20260508031915 35 164 0.0 0.0 0.00 0.01 0.01 95 1007.8
20260508031412 35 164 0.0 0.0 0.00 0.01 0.01 96 1007.8
20260508030908 35 174 0.0 0.0 0.00 0.01 0.01 96 1008.0
20260508030405 35 174 0.0 0.0 0.00 0.01 0.01 95 1007.7
20260508025902 35 174 0.0 0.0 0.00 0.01 0.01 95 1007.7
20260508025359 35 174 0.0 0.0 0.00 0.01 0.01 94 1007.7
20260508024856 36 174 0.0 0.0 0.00 0.01 0.01 94 1007.7
20260508024352 36 141 0.0 0.0 0.00 0.01 0.01 93 1007.7
20260508023849 36 130 0.0 1.0 0.00 0.01 0.01 93 1007.6
20260508023346 36 136 1.0 1.0 0.00 0.01 0.01 93 1007.7
20260508022843 36 161 0.0 0.0 0.00 0.01 0.01 93 1007.8
20260508022338 37 161 0.0 0.0 0.00 0.01 0.01 92 1007.8
20260508021836 37 161 0.0 0.0 0.00 0.01 0.01 91 1007.6
20260508021332 37 144 0.0 0.0 0.00 0.01 0.01 90 1007.7
20260508020828 38 134 0.0 1.0 0.00 0.01 0.01 90 1007.5
20260508020326 37 133 0.0 0.0 0.00 0.01 0.01 90 1007.5
20260508015823 37 136 0.0 0.0 0.00 0.01 0.01 91 1007.6
20260508015320 37 161 0.0 0.0 0.00 0.01 0.01 91 1007.6
20260508014817 38 161 0.0 0.0 0.00 0.01 0.01 91 1007.6
20260508014314 38 161 0.0 0.0 0.00 0.01 0.01 90 1007.5
20260508013809 38 161 0.0 0.0 0.00 0.01 0.01 89 1007.6
20260508013306 39 145 0.0 0.0 0.00 0.01 0.01 87 1007.5
20260508012803 39 152 0.0 0.0 0.00 0.01 0.01 88 1007.7
20260508012301 40 172 0.0 0.0 0.00 0.01 0.01 87 1007.4
20260508011758 41 172 0.0 0.0 0.00 0.01 0.01 87 1007.3
20260508011256 41 172 0.0 0.0 0.00 0.01 0.01 86 1007.6
20260508010752 41 173 0.0 0.0 0.00 0.01 0.01 85 1007.7
20260508010250 42 180 0.0 0.0 0.00 0.01 0.01 85 1007.7
20260508005747 42 190 0.0 0.0 0.00 0.01 0.01 83 1007.4
20260508005244 42 171 0.0 0.0 0.00 0.01 0.01 82 1007.1
20260508004739 43 171 0.0 0.0 0.00 0.01 0.01 82 1007.5
20260508004236 43 180 0.0 0.0 0.00 0.01 0.01 82 1007.4
20260508003733 43 194 1.0 1.0 0.00 0.01 0.01 81 1007.2
20260508003230 43 180 0.0 0.0 0.00 0.01 0.01 82 1007.1
20260508002726 43 180 0.0 0.0 0.00 0.01 0.01 80 1007.0
20260508002224 44 180 0.0 0.0 0.00 0.01 0.01 82 1007.2
20260508001719 43 181 0.0 0.0 0.00 0.01 0.01 80 1007.2
20260508001215 44 180 0.0 0.0 0.00 0.01 0.01 78 1006.9
20260508000712 44 180 0.0 0.0 0.00 0.01 0.01 77 1006.7
20260508000212 45 180 0.0 0.0 0.00 0.01 0.01 80 1006.9
20260507235705 45 180 0.0 0.0 0.00 0.01 0.01 76 1006.9
20260507235203 46 181 0.0 0.0 0.00 0.01 0.01 75 1006.8
20260507234659 47 181 0.0 0.0 0.00 0.01 0.01 70 1006.9
20260507234156 47 171 0.0 0.0 0.00 0.01 0.01 66 1006.7
20260507233653 48 172 0.0 0.0 0.00 0.01 0.01 61 1006.7
20260507233151 49 181 0.0 0.0 0.00 0.01 0.01 62 1006.8
20260507232648 50 169 0.0 0.0 0.00 0.01 0.01 54 1006.9
20260507232145 50 165 0.0 0.0 0.00 0.01 0.01 53 1006.6
20260507231641 51 159 0.0 0.0 0.00 0.01 0.01 57 1006.7
20260507231139 52 172 0.0 0.0 0.00 0.01 0.01 57 1006.7
20260507230635 52 212 1.0 2.0 0.00 0.01 0.01 55 1006.6
20260507230132 52 234 1.0 2.0 0.00 0.01 0.01 53 1006.9
20260507225626 51 150 0.0 1.0 0.00 0.01 0.01 55 1006.8
20260507225123 52 171 0.0 0.0 0.00 0.01 0.01 53 1006.5
20260507224619 52 189 0.0 0.0 0.00 0.01 0.01 54 1006.5
20260507224116 53 128 2.0 2.0 0.00 0.01 0.01 50 1006.5
20260507223612 53 118 0.0 1.0 0.00 0.01 0.01 53 1006.7
20260507223108 53 206 1.0 1.0 0.00 0.01 0.01 53 1006.6
20260507222606 52 203 0.0 0.0 0.00 0.01 0.01 54 1006.7
20260507222102 54 212 1.0 3.0 0.00 0.01 0.01 52 1006.7
20260507221558 54 222 1.0 2.0 0.00 0.01 0.01 50 1006.6
20260507221055 53 262 4.0 6.0 0.00 0.01 0.01 50 1006.7
20260507220552 52 241 2.0 2.0 0.00 0.01 0.01 55 1006.7
20260507220050 52 158 0.0 1.0 0.00 0.01 0.01 55 1006.7
20260507215546 53 118 2.0 3.0 0.00 0.01 0.01 51 1006.9
20260507215044 55 256 3.0 4.0 0.00 0.01 0.01 51 1006.9
20260507214541 55 162 0.0 1.0 0.00 0.01 0.01 50 1006.9
20260507214037 55 177 1.0 2.0 0.00 0.01 0.01 53 1006.6
20260507213533 55 290 3.0 4.0 0.00 0.01 0.01 50 1006.8
20260507213030 54 122 1.0 1.0 0.00 0.01 0.01 55 1007.0
20260507212526 55 283 4.0 4.0 0.00 0.01 0.01 50 1006.9
20260507212023 55 285 5.0 7.0 0.00 0.01 0.01 51 1006.8
20260507211520 56 307 5.0 7.0 0.00 0.01 0.01 50 1007.0
20260507211016 56 134 2.0 3.0 0.00 0.01 0.01 50 1006.7
20260507210513 54 133 2.0 2.0 0.00 0.01 0.01 51 1006.7
20260507210010 52 235 2.0 2.0 0.00 0.01 0.01 53 1006.6
20260507205507 51 125 1.0 1.0 0.00 0.01 0.01 55 1006.7
20260507205003 52 306 2.0 3.0 0.00 0.01 0.01 54 1006.8
20260507204459 52 235 2.0 4.0 0.00 0.01 0.01 54 1006.7
20260507203957 53 199 2.0 4.0 0.00 0.01 0.01 55 1006.9
20260507203455 53 211 3.0 8.0 0.00 0.01 0.01 51 1006.8
20260507202951 55 171 3.0 4.0 0.00 0.01 0.01 48 1006.7
20260507202447 54 197 2.0 2.0 0.00 0.01 0.01 51 1006.9
20260507201944 55 110 1.0 2.0 0.00 0.01 0.01 50 1006.8
20260507201439 54 217 1.0 1.0 0.00 0.01 0.01 53 1006.7
20260507200936 54 318 6.0 8.0 0.00 0.01 0.01 50 1006.9
20260507200431 55 61 5.0 7.0 0.00 0.01 0.01 48 1007.1
20260507195927 55 286 9.0 11.0 0.00 0.01 0.01 49 1006.7
20260507195425 55 112 4.0 6.0 0.00 0.01 0.01 48 1006.7
20260507194922 56 154 1.0 1.0 0.00 0.01 0.01 50 1006.7
20260507194419 55 312 4.0 7.0 0.00 0.01 0.01 49 1006.9
20260507193915 52 228 2.0 4.0 0.00 0.01 0.01 53 1007.1
20260507193412 53 71 2.0 4.0 0.00 0.01 0.01 52 1007.2
20260507192908 53 141 1.0 1.0 0.00 0.01 0.01 53 1007.2
20260507192404 53 233 3.0 3.0 0.00 0.01 0.01 53 1007.3
20260507191901 53 327 4.0 8.0 0.00 0.01 0.01 51 1007.3
20260507191357 54 193 3.0 3.0 0.00 0.01 0.01 49 1007.1
20260507190854 54 8 4.0 6.0 0.00 0.01 0.01 50 1007.2
20260507190352 52 109 4.0 7.0 0.00 0.01 0.01 52 1007.3